Location: Tabor
(49.4170°N, 14.6670°E)
Time: 09:23:20
(UTC+02:00)

ISS - Pass Details

Date: 23 May 2021
Orbit: 417 x 422 km, 51.6° (Epoch: 13 June)

Event Time Altitude Azimuth Distance (km) Brightness Sun altitude
Rises 22:10:04 0° 281° (W) 2,365 0.9 -10.5°
Reaches altitude 10° 22:12:11 10° 285° (WNW) 1,501 -0.1 -10.8°
Maximum altitude 22:15:31 59° 6° (N) 492 -3.2 -11.1°
Drops below altitude 10° 22:18:51 10° 87° (E) 1,503 -1.3 -11.4°
Enters shadow 22:19:30 - 88° (E) 1,765 -0.9 -11.5°
